Date,TemperatureHighF,TemperatureAvgF,TemperatureLowF,DewpointHighF,DewpointAvgF,DewpointLowF,HumidityHigh,HumidityAvg,HumidityLow,PressureMaxIn,PressureMinIn,WindSpeedMaxMPH,WindSpeedAvgMPH,GustSpeedMaxMPH,PrecipitationSumIn
2013-12-1,36.1,30.9,26.1,32.5,27.8,18.3,99,88,72,30.41,30.05,7,1,7,0.00
2013-12-2,40.5,35.0,32.5,36.5,33.8,-12.2,99,96,11,30.05,29.92,8,2,8,0.00
2013-12-3,42.4,32.1,24.3,37.8,31.2,23.9,99,97,79,29.93,29.86,3,0,3,0.00
2013-12-4,41.4,28.6,21.9,30.4,25.7,21.7,99,90,60,30.19,29.92,5,0,5,0.01
2013-12-5,34.0,31.8,24.6,33.7,30.3,24.4,99,95,83,30.24,29.91,5,1,5,0.09
2013-12-6,43.5,36.9,32.0,42.3,34.3,22.9,99,90,66,30.12,29.85,4,1,4,0.12
2013-12-7,36.0,28.9,21.2,30.4,20.4,11.4,99,72,48,30.41,30.07,12,2,12,0.00
2013-12-8,30.2,23.0,16.7,14.6,11.2,8.3,78,61,42,30.54,30.40,6,1,6,0.00
2013-12-9,25.3,23.2,19.9,25.1,19.2,10.8,99,86,58,30.49,29.85,9,2,9,0.00
2013-12-10,34.0,25.5,14.2,30.5,24.0,12.5,99,94,77,29.89,29.73,4,1,4,0.00
2013-12-11,31.3,20.9,8.6,19.9,14.6,7.2,99,78,55,30.10,29.89,7,2,7,0.00
2013-12-12,19.9,11.0,3.4,12.4,2.6,-3.1,96,70,40,30.23,29.96,9,1,9,0.00
2013-12-13,26.1,10.4,-2.7,14.1,2.7,-26.9,96,73,27,30.34,29.88,9,1,9,0.00
2013-12-14,15.3,5.3,-4.9,5.2,-4.1,-10.1,91,68,35,30.56,30.27,14,2,14,0.00
2013-12-15,29.1,15.8,7.2,28.9,14.7,5.1,99,95,91,30.27,29.43,19,4,19,0.00
2013-12-16,24.8,12.5,0.7,23.4,10.0,-2.2,98,90,78,30.16,29.65,9,1,9,0.00
2013-12-17,14.5,3.6,-10.5,8.5,0.0,-13.7,94,85,58,30.24,29.99,7,0,7,0.00
2013-12-18,31.3,17.7,9.9,28.9,15.9,8.3,99,93,77,29.99,29.84,2,0,2,0.00
2013-12-19,33.4,23.3,16.0,30.0,22.0,0.6,99,95,27,30.06,29.91,4,0,4,0.00
2013-12-20,38.5,31.7,26.2,38.2,31.3,26.0,99,98,88,30.10,29.90,3,0,3,0.16
2013-12-21,42.4,35.5,32.4,42.1,35.3,32.2,99,99,99,29.93,29.84,3,0,3,0.11
2013-12-22,37.6,32.7,28.4,37.3,32.5,28.2,99,99,99,30.00,29.84,11,3,11,0.43